| time (UTC) | temp F | wind direction | speed MPH | gust MPH | rain 1hr in | rain 24hr in | rain mn in | humidity % | barometer mb |
| 20260507151837 | 56 | 266 | 8.0 | 19.0 | 0.00 | 0.69 | 0.00 | 1009.8 | |
| 20260507151335 | 55 | 259 | 6.0 | 16.0 | 0.00 | 0.70 | 0.00 | 1009.8 | |
| 20260507150832 | 55 | 265 | 2.0 | 16.0 | 0.00 | 0.72 | 0.00 | 1010.2 | |
| 20260507150329 | 55 | 313 | 4.0 | 13.0 | 0.00 | 0.73 | 0.00 | 1009.8 | |
| 20260507145828 | 55 | 318 | 2.0 | 12.0 | 0.00 | 0.74 | 0.00 | 1010.2 | |
| 20260507145327 | 55 | 264 | 6.0 | 12.0 | 0.00 | 0.76 | 0.00 | 1010.2 | |
| 20260507144825 | 55 | 277 | 4.0 | 13.0 | 0.00 | 0.78 | 0.00 | 1010.2 | |
| 20260507144323 | 54 | 280 | 6.0 | 16.0 | 0.00 | 0.79 | 0.00 | 1010.2 | |
| 20260507143821 | 54 | 326 | 3.0 | 16.0 | 0.00 | 0.80 | 0.00 | 1010.2 | |
| 20260507143319 | 54 | 266 | 9.0 | 15.0 | 0.00 | 0.81 | 0.00 | 1010.2 | |
| 20260507142817 | 53 | 7 | 4.0 | 12.0 | 0.00 | 0.82 | 0.00 | 1010.2 | |
| 20260507142315 | 53 | 0 | 6.0 | 19.0 | 0.00 | 0.83 | 0.00 | 1010.2 | |
| 20260507141814 | 53 | 336 | 6.0 | 19.0 | 0.00 | 0.84 | 0.00 | 1010.2 | |
| 20260507141241 | 54 | 351 | 4.0 | 15.0 | 0.00 | 0.85 | 0.00 | 1010.2 | |
| 20260507140737 | 53 | 341 | 3.0 | 13.0 | 0.00 | 0.87 | 0.00 | 1010.2 | |
| 20260507140205 | 53 | 353 | 2.0 | 13.0 | 0.00 | 0.88 | 0.00 | 1010.2 | |
| 20260507135702 | 53 | 272 | 7.0 | 13.0 | 0.00 | 0.88 | 0.00 | 1010.2 | |
| 20260507135200 | 52 | 27 | 2.0 | 9.0 | 0.00 | 0.89 | 0.00 | 1010.2 | |
| 20260507134659 | 52 | 249 | 4.0 | 9.0 | 0.00 | 0.90 | 0.00 | 1010.2 | |
| 20260507134156 | 51 | 281 | 3.0 | 12.0 | 0.00 | 0.91 | 0.00 | 1010.5 | |
| 20260507133654 | 51 | 2 | 4.0 | 12.0 | 0.00 | 0.92 | 0.00 | 1010.5 | |
| 20260507133120 | 51 | 264 | 4.0 | 12.0 | 0.00 | 0.92 | 0.00 | 1010.5 | |
| 20260507132618 | 50 | 264 | 3.0 | 13.0 | 0.00 | 0.93 | 0.00 | 1010.5 | |
| 20260507132116 | 50 | 271 | 1.0 | 13.0 | 0.00 | 0.93 | 0.00 | 1010.5 | |
| 20260507131614 | 50 | 257 | 4.0 | 9.0 | 0.00 | 0.94 | 0.00 | 1010.5 | |
| 20260507131112 | 50 | 281 | 3.0 | 9.0 | 0.00 | 0.94 | 0.00 | 1010.5 | |
| 20260507130610 | 49 | 264 | 2.0 | 9.0 | 0.00 | 0.95 | 0.00 | 1010.5 | |
| 20260507130109 | 49 | 281 | 5.0 | 10.0 | 0.00 | 0.96 | 0.00 | 1010.5 | |
| 20260507125608 | 49 | 269 | 3.0 | 12.0 | 0.00 | 0.96 | 0.00 | 1010.5 | |
| 20260507125105 | 48 | 257 | 3.0 | 13.0 | 0.00 | 0.97 | 0.00 | 1010.5 | |
| 20260507124502 | 48 | 279 | 4.0 | 13.0 | 0.00 | 0.98 | 0.00 | 1010.5 | |
| 20260507124001 | 47 | 233 | 3.0 | 10.0 | 0.00 | 0.99 | 0.00 | 1010.5 | |
| 20260507123459 | 46 | 266 | 6.0 | 10.0 | 0.00 | 1.00 | 0.00 | 1010.5 | |
| 20260507122927 | 46 | 287 | 4.0 | 13.0 | 0.00 | 1.00 | 0.00 | 1010.5 | |
| 20260507122350 | 45 | 311 | 4.0 | 16.0 | 0.00 | 1.01 | 0.00 | 1010.5 | |
| 20260507121848 | 45 | 242 | 3.0 | 16.0 | 0.00 | 1.02 | 0.00 | 1010.5 | |
| 20260507121346 | 45 | 281 | 6.0 | 16.0 | 0.00 | 1.03 | 0.00 | 1010.5 | |
| 20260507120844 | 45 | 282 | 0.0 | 10.0 | 0.00 | 1.04 | 0.00 | 1010.5 | |
| 20260507120342 | 44 | 248 | 4.0 | 10.0 | 0.00 | 1.04 | 0.00 | 1010.5 | |
| 20260507115636 | 44 | 281 | 3.0 | 10.0 | 0.00 | 1.04 | 0.00 | 1010.5 | |
| 20260507115134 | 44 | 266 | 2.0 | 10.0 | 0.00 | 1.05 | 0.00 | 1010.5 | |
| 20260507114600 | 44 | 275 | 5.0 | 10.0 | 0.00 | 1.05 | 0.00 | 1010.5 | |
| 20260507114059 | 44 | 266 | 3.0 | 10.0 | 0.00 | 1.05 | 0.00 | 1010.2 | |
| 20260507113557 | 43 | 273 | 4.0 | 10.0 | 0.00 | 1.05 | 0.00 | 1010.2 | |
| 20260507113024 | 43 | 271 | 5.0 | 9.0 | 0.00 | 1.05 | 0.00 | 1010.2 | |
| 20260507112523 | 43 | 262 | 3.0 | 10.0 | 0.00 | 1.05 | 0.00 | 1010.2 | |
| 20260507112023 | 43 | 281 | 3.0 | 10.0 | 0.00 | 1.05 | 0.00 | 1010.2 | |
| 20260507111520 | 43 | 249 | 3.0 | 10.0 | 0.00 | 1.05 | 0.00 | 1009.8 | |
| 20260507110947 | 42 | 268 | 4.0 | 12.0 | 0.00 | 1.05 | 0.00 | 1009.8 | |
| 20260507110445 | 42 | 274 | 4.0 | 12.0 | 0.00 | 1.05 | 0.00 | 1009.8 | |
| 20260507105944 | 42 | 267 | 4.0 | 12.0 | 0.00 | 1.06 | 0.00 | 1009.8 | |
| 20260507105410 | 42 | 275 | 2.0 | 9.0 | 0.00 | 1.06 | 0.00 | 1009.8 | |
| 20260507104908 | 42 | 256 | 2.0 | 6.0 | 0.00 | 1.06 | 0.00 | 1009.8 | |
| 20260507104407 | 41 | 223 | 0.0 | 6.0 | 0.00 | 1.06 | 0.00 | 1009.8 | |
| 20260507103906 | 41 | 247 | 2.0 | 6.0 | 0.00 | 1.06 | 0.00 | 1009.5 | |
| 20260507103301 | 41 | 261 | 3.0 | 6.0 | 0.00 | 1.06 | 0.00 | 1009.5 | |
| 20260507102758 | 41 | 230 | 1.0 | 4.0 | 0.00 | 1.06 | 0.00 | 1009.1 | |
| 20260507102255 | 42 | 235 | 1.0 | 4.0 | 0.00 | 1.06 | 0.00 | 1009.5 | |
| 20260507101754 | 42 | 254 | 0.0 | 6.0 | 0.00 | 1.06 | 0.00 | 1009.1 | |
| 20260507101250 | 42 | 254 | 0.0 | 6.0 | 0.00 | 1.06 | 0.00 | 1009.1 | |
| 20260507100749 | 42 | 254 | 2.0 | 6.0 | 0.00 | 1.06 | 0.00 | 1009.1 | |
| 20260507100247 | 42 | 254 | 0.0 | 3.0 | 0.00 | 1.06 | 0.00 | 1009.1 | |
| 20260507095746 | 43 | 254 | 1.0 | 4.0 | 0.00 | 1.06 | 0.00 | 1009.1 | |
| 20260507095244 | 43 | 254 | 0.0 | 4.0 | 0.00 | 1.06 | 0.00 | 1009.1 | |
| 20260507094743 | 43 | 266 | 0.0 | 4.0 | 0.00 | 1.06 | 0.00 | 1009.1 | |
| 20260507094241 | 43 | 266 | 0.0 | 9.0 | 0.00 | 1.06 | 0.00 | 1009.1 | |
| 20260507093739 | 43 | 266 | 0.0 | 9.0 | 0.00 | 1.06 | 0.00 | 1009.1 | |
| 20260507093236 | 44 | 216 | 2.0 | 6.0 | 0.00 | 1.06 | 0.00 | 1009.1 | |
| 20260507092735 | 44 | 216 | 1.0 | 6.0 | 0.00 | 1.06 | 0.00 | 1009.1 | |
| 20260507092234 | 44 | 212 | 3.0 | 6.0 | 0.00 | 1.06 | 0.00 | 1008.8 | |
| 20260507091733 | 44 | 224 | 0.0 | 3.0 | 0.00 | 1.06 | 0.00 | 1008.8 | |
| 20260507091230 | 44 | 224 | 0.0 | 4.0 | 0.00 | 1.06 | 0.00 | 1008.8 | |
| 20260507090729 | 44 | 224 | 1.0 | 4.0 | 0.00 | 1.06 | 0.00 | 1008.8 | |
| 20260507090228 | 44 | 224 | 2.0 | 4.0 | 0.00 | 1.06 | 0.00 | 1009.1 | |
| 20260507085726 | 44 | 224 | 2.0 | 4.0 | 0.00 | 1.06 | 0.00 | 1009.1 | |
| 20260507085122 | 44 | 224 | 1.0 | 4.0 | 0.00 | 1.06 | 0.00 | 1008.8 | |
| 20260507084621 | 45 | 224 | 1.0 | 4.0 | 0.00 | 1.06 | 0.00 | 1008.8 | |
| 20260507084120 | 45 | 227 | 2.0 | 6.0 | 0.00 | 1.06 | 0.00 | 1008.8 | |
| 20260507083619 | 45 | 227 | 2.0 | 7.0 | 0.00 | 1.06 | 0.00 | 1008.8 | |
| 20260507083118 | 45 | 275 | 4.0 | 7.0 | 0.00 | 1.06 | 0.00 | 1008.8 | |
| 20260507082616 | 45 | 284 | 2.0 | 6.0 | 0.00 | 1.06 | 0.00 | 1008.8 | |
| 20260507082115 | 45 | 257 | 2.0 | 7.0 | 0.00 | 1.06 | 0.00 | 1008.5 | |
| 20260507081614 | 45 | 270 | 2.0 | 9.0 | 0.00 | 1.06 | 0.00 | 1008.8 | |
| 20260507081113 | 45 | 255 | 3.0 | 9.0 | 0.00 | 1.06 | 0.00 | 1008.8 | |
| 20260507080611 | 46 | 268 | 2.0 | 4.0 | 0.00 | 1.06 | 0.00 | 1008.8 | |
| 20260507080038 | 46 | 268 | 2.0 | 4.0 | 0.00 | 1.06 | 0.00 | 1008.8 | |
| 20260507075536 | 46 | 268 | 2.0 | 4.0 | 0.00 | 1.06 | 0.00 | 1008.8 | |
| 20260507075035 | 46 | 247 | 0.0 | 3.0 | 0.00 | 1.06 | 0.00 | 1008.8 | |
| 20260507074532 | 46 | 247 | 0.0 | 3.0 | 0.00 | 1.06 | 0.00 | 1008.8 | |
| 20260507074031 | 46 | 247 | 0.0 | 3.0 | 0.00 | 1.06 | 0.00 | 1008.8 | |
| 20260507073530 | 46 | 258 | 1.0 | 6.0 | 0.00 | 1.06 | 0.00 | 1008.5 | |
| 20260507073028 | 46 | 276 | 1.0 | 7.0 | 0.00 | 1.06 | 0.00 | 1008.8 | |
| 20260507072527 | 46 | 254 | 2.0 | 7.0 | 0.00 | 1.06 | 0.00 | 1008.8 | |
| 20260507072026 | 46 | 254 | 3.0 | 6.0 | 0.00 | 1.06 | 0.00 | 1008.8 | |
| 20260507071524 | 46 | 233 | 1.0 | 4.0 | 0.00 | 1.06 | 0.00 | 1008.8 | |
| 20260507070951 | 46 | 231 | 0.0 | 7.0 | 0.00 | 1.06 | 0.00 | 1008.8 | |
| 20260507070449 | 46 | 229 | 1.0 | 7.0 | 0.00 | 1.06 | 0.00 | 1008.5 | |
| 20260507065948 | 46 | 260 | 1.0 | 7.0 | 0.00 | 1.06 | 0.00 | 1008.5 | |
| 20260507065447 | 46 | 273 | 2.0 | 7.0 | 0.00 | 1.06 | 0.00 | 1008.5 | |
| 20260507064946 | 46 | 298 | 3.0 | 4.0 | 0.00 | 1.06 | 0.00 | 1008.5 | |
| 20260507064444 | 46 | 299 | 1.0 | 6.0 | 0.00 | 1.06 | 0.00 | 1008.1 | |
| 20260507063943 | 46 | 299 | 1.0 | 6.0 | 0.00 | 1.06 | 0.00 | 1008.1 | |
| 20260507063339 | 46 | 186 | 2.0 | 4.0 | 0.00 | 1.06 | 0.00 | 1008.1 | |
| 20260507062837 | 46 | 186 | 1.0 | 3.0 | 0.00 | 1.06 | 0.00 | 1008.1 | |
| 20260507062306 | 46 | 186 | 0.0 | 3.0 | 0.00 | 1.06 | 0.00 | 1008.1 | |
| 20260507061802 | 46 | 186 | 0.0 | 3.0 | 0.00 | 1.06 | 0.00 | 1008.5 | |
| 20260507061300 | 46 | 186 | 0.0 | 3.0 | 0.00 | 1.06 | 0.00 | 1008.5 | |
| 20260507060759 | 46 | 186 | 0.0 | 0.0 | 0.00 | 1.06 | 0.00 | 1008.5 | |
| 20260507060258 | 46 | 186 | 0.0 | 0.0 | 0.00 | 1.06 | 0.00 | 1008.5 | |
| 20260507055755 | 46 | 186 | 0.0 | 0.0 | 0.00 | 1.06 | 0.00 | 1008.5 | |
| 20260507055254 | 46 | 186 | 0.0 | 0.0 | 0.00 | 1.06 | 0.00 | 1008.5 | |
| 20260507054753 | 46 | 186 | 0.0 | 2.0 | 0.00 | 1.06 | 0.00 | 1008.5 | |
| 20260507054250 | 46 | 186 | 0.0 | 2.0 | 0.00 | 1.06 | 0.00 | 1008.1 | |
| 20260507053749 | 46 | 186 | 0.0 | 2.0 | 0.00 | 1.06 | 0.00 | 1008.5 | |
| 20260507053248 | 46 | 185 | 0.0 | 0.0 | 0.00 | 1.06 | 0.00 | 1008.5 | |
| 20260507052745 | 46 | 185 | 0.0 | 0.0 | 0.00 | 1.06 | 0.00 | 1008.5 | |
| 20260507052244 | 46 | 185 | 0.0 | 0.0 | 0.00 | 1.06 | 0.00 | 1008.5 | |
| 20260507051743 | 46 | 185 | 0.0 | 0.0 | 0.00 | 1.06 | 0.00 | 1008.1 | |
| 20260507051209 | 46 | 185 | 0.0 | 0.0 | 0.00 | 1.06 | 0.00 | 1008.5 | |
| 20260507050637 | 46 | 185 | 0.0 | 0.0 | 0.00 | 1.06 | 0.00 | 1008.5 | |
| 20260507050136 | 46 | 185 | 0.0 | 0.0 | 0.00 | 1.06 | 0.00 | 1008.8 | |
| 20260507045634 | 46 | 185 | 0.0 | 0.0 | 0.00 | 1.06 | 0.00 | 1008.8 | |
| 20260507045030 | 46 | 185 | 0.0 | 3.0 | 0.00 | 1.06 | 0.00 | 1008.8 | |
| 20260507044526 | 46 | 185 | 0.0 | 3.0 | 0.00 | 1.06 | 0.00 | 1008.5 | |
| 20260507044024 | 46 | 185 | 0.0 | 3.0 | 0.00 | 1.06 | 0.00 | 1008.8 | |
| 20260507043522 | 46 | 185 | 0.0 | 3.0 | 0.00 | 1.06 | 0.00 | 1009.1 | |
| 20260507043021 | 46 | 185 | 0.0 | 3.0 | 0.00 | 1.06 | 0.00 | 1009.1 | |
| 20260507042449 | 46 | 185 | 0.0 | 0.0 | 0.00 | 1.06 | 0.00 | 1009.1 | |
| 20260507041917 | 46 | 185 | 0.0 | 0.0 | 0.00 | 1.06 | 0.00 | 1009.1 | |
| 20260507041311 | 46 | 185 | 0.0 | 0.0 | 0.00 | 1.06 | 0.00 | 1008.8 | |
| 20260507040809 | 46 | 179 | 0.0 | 0.0 | 0.00 | 1.06 | 0.00 | 1008.8 | |
| 20260507040308 | 46 | 120 | 0.0 | 0.0 | 0.00 | 1.07 | 0.00 | 1008.8 | |
| 20260507035807 | 46 | 120 | 0.0 | 0.0 | 0.00 | 1.11 | 1.11 | 1008.8 | |
| 20260507035306 | 46 | 120 | 0.0 | 0.0 | 0.00 | 1.11 | 1.11 | 1009.1 | |
| 20260507034805 | 46 | 120 | 0.0 | 0.0 | 0.00 | 1.11 | 1.11 | 1009.1 | |
| 20260507034304 | 46 | 119 | 0.0 | 0.0 | 0.00 | 1.11 | 1.11 | 1009.1 | |
| 20260507033803 | 46 | 119 | 0.0 | 0.0 | 0.00 | 1.11 | 1.11 | 1009.1 | |
| 20260507033230 | 45 | 119 | 0.0 | 0.0 | 0.00 | 1.11 | 1.11 | 1009.1 | |
| 20260507032729 | 45 | 119 | 0.0 | 3.0 | 0.00 | 1.11 | 1.11 | 1008.8 | |
| 20260507032227 | 45 | 119 | 0.0 | 3.0 | 0.00 | 1.11 | 1.11 | 1009.1 | |
| 20260507031654 | 45 | 119 | 0.0 | 3.0 | 0.00 | 1.11 | 1.11 | 1009.1 | |
| 20260507031152 | 45 | 119 | 1.0 | 3.0 | 0.00 | 1.11 | 1.11 | 1009.1 | |
| 20260507030620 | 45 | 119 | 0.0 | 3.0 | 0.00 | 1.11 | 1.11 | 1009.1 | |
| 20260507030117 | 45 | 119 | 0.0 | 3.0 | 0.00 | 1.11 | 1.11 | 1009.1 | |
| 20260507025616 | 45 | 119 | 1.0 | 3.0 | 0.00 | 1.11 | 1.11 | 1009.5 | |
| 20260507025043 | 45 | 119 | 0.0 | 4.0 | 0.00 | 1.11 | 1.11 | 1009.5 | |
| 20260507024542 | 46 | 119 | 2.0 | 4.0 | 0.00 | 1.11 | 1.11 | 1009.1 | |
| 20260507024041 | 46 | 119 | 0.0 | 0.0 | 0.00 | 1.11 | 1.11 | 1009.8 | |
| 20260507023540 | 46 | 119 | 0.0 | 0.0 | 0.00 | 1.11 | 1.11 | 1009.5 | |
| 20260507023038 | 46 | 119 | 0.0 | 0.0 | 0.00 | 1.11 | 1.11 | 1009.5 | |
| 20260507022538 | 46 | 119 | 0.0 | 0.0 | 0.01 | 1.11 | 1.11 | 1009.5 | |
| 20260507022037 | 45 | 120 | 0.0 | 0.0 | 0.01 | 1.11 | 1.11 | 1009.5 | |
| 20260507021533 | 45 | 120 | 0.0 | 3.0 | 0.01 | 1.11 | 1.11 | 1009.5 | |
| 20260507021032 | 45 | 120 | 0.0 | 3.0 | 0.01 | 1.11 | 1.11 | 1009.5 | |
| 20260507020531 | 45 | 120 | 0.0 | 3.0 | 0.02 | 1.11 | 1.11 | 1009.5 | |
| 20260507020029 | 45 | 120 | 0.0 | 6.0 | 0.02 | 1.11 | 1.11 | 1009.5 | |
| 20260507015528 | 45 | 120 | 0.0 | 6.0 | 0.02 | 1.11 | 1.11 | 1009.5 | |
| 20260507015025 | 46 | 120 | 1.0 | 4.0 | 0.02 | 1.11 | 1.11 | 1009.5 | |
| 20260507014350 | 45 | 120 | 0.0 | 2.0 | 0.02 | 1.11 | 1.11 | 1009.5 | |
| 20260507013848 | 45 | 120 | 0.0 | 4.0 | 0.02 | 1.11 | 1.11 | 1009.5 | |
| 20260507013347 | 45 | 120 | 0.0 | 4.0 | 0.03 | 1.11 | 1.11 | 1009.5 | |
| 20260507012845 | 46 | 120 | 2.0 | 4.0 | 0.03 | 1.11 | 1.11 | 1009.1 | |
| 20260507012342 | 46 | 120 | 0.0 | 6.0 | 0.02 | 1.10 | 1.10 | 1009.1 | |
| 20260507011841 | 46 | 120 | 0.0 | 6.0 | 0.03 | 1.10 | 1.10 | 1009.1 | |
| 20260507011338 | 46 | 98 | 2.0 | 4.0 | 0.03 | 1.10 | 1.10 | 1009.1 | |
| 20260507010837 | 46 | 91 | 0.0 | 4.0 | 0.03 | 1.10 | 1.10 | 1009.1 | |
| 20260507010336 | 46 | 91 | 0.0 | 6.0 | 0.02 | 1.09 | 1.09 | 1009.1 | |
| 20260507005700 | 46 | 91 | 2.0 | 6.0 | 0.02 | 1.09 | 1.09 | 1009.1 | |
| 20260507005158 | 46 | 103 | 2.0 | 6.0 | 0.02 | 1.09 | 1.09 | 1009.1 | |
| 20260507004657 | 46 | 150 | 3.0 | 6.0 | 0.02 | 1.09 | 1.09 | 1009.1 | |
| 20260507004156 | 46 | 94 | 3.0 | 6.0 | 0.02 | 1.09 | 1.09 | 1009.1 | |
| 20260507003654 | 46 | 32 | 1.0 | 6.0 | 0.02 | 1.08 | 1.08 | 1008.8 | |
| 20260507003153 | 46 | 32 | 2.0 | 6.0 | 0.03 | 1.08 | 1.08 | 1008.8 | |
| 20260507002652 | 46 | 129 | 2.0 | 4.0 | 0.03 | 1.08 | 1.08 | 1008.8 | |
| 20260507002151 | 46 | 129 | 2.0 | 4.0 | 0.02 | 1.07 | 1.07 | 1008.8 | |
| 20260507001650 | 46 | 129 | 0.0 | 2.0 | 0.03 | 1.07 | 1.07 | 1008.5 | |
| 20260507001149 | 46 | 129 | 0.0 | 7.0 | 0.03 | 1.07 | 1.07 | 1008.5 | |
| 20260507000648 | 46 | 99 | 0.0 | 7.0 | 0.05 | 1.07 | 1.07 | 1008.1 | |
| 20260507000147 | 46 | 106 | 2.0 | 7.0 | 0.06 | 1.07 | 1.07 | 1008.1 | |
| 20260506235646 | 46 | 103 | 2.0 | 4.0 | 0.06 | 1.07 | 1.07 | 1008.1 | |
| 20260506235144 | 46 | 103 | 0.0 | 4.0 | 0.08 | 1.07 | 1.07 | 1007.8 | |
| 20260506234642 | 46 | 103 | 1.0 | 4.0 | 0.08 | 1.07 | 1.07 | 1007.8 | |
| 20260506234140 | 46 | 103 | 0.0 | 6.0 | 0.08 | 1.07 | 1.07 | 1007.5 | |
| 20260506233639 | 46 | 103 | 1.0 | 6.0 | 0.07 | 1.06 | 1.06 | 1007.5 | |
| 20260506233138 | 46 | 125 | 0.0 | 4.0 | 0.06 | 1.05 | 1.05 | 1007.8 | |
| 20260506232637 | 47 | 125 | 0.0 | 4.0 | 0.07 | 1.05 | 1.05 | 1007.5 | |
| 20260506232135 | 47 | 125 | 3.0 | 4.0 | 0.07 | 1.05 | 1.05 | 1007.5 | |
| 20260506231634 | 47 | 22 | 2.0 | 4.0 | 0.06 | 1.04 | 1.04 | 1007.5 | |
| 20260506231133 | 47 | 22 | 0.0 | 6.0 | 0.05 | 1.03 | 1.03 | 1007.5 | |
| 20260506230632 | 47 | 22 | 0.0 | 6.0 | 0.04 | 1.02 | 1.02 | 1007.5 | |
| 20260506230130 | 47 | 22 | 1.0 | 4.0 | 0.03 | 1.01 | 1.01 | 1007.1 | |
| 20260506225629 | 47 | 21 | 0.0 | 3.0 | 0.03 | 1.00 | 1.00 | 1007.5 | |
| 20260506225128 | 47 | 22 | 0.0 | 3.0 | 0.02 | 0.99 | 0.99 | 1007.1 | |
| 20260506224627 | 47 | 22 | 0.0 | 3.0 | 0.02 | 0.99 | 0.99 | 1007.1 | |
| 20260506224125 | 47 | 22 | 1.0 | 3.0 | 0.02 | 0.99 | 0.99 | 1006.8 | |
| 20260506223551 | 47 | 22 | 0.0 | 3.0 | 0.02 | 0.99 | 0.99 | 1006.8 | |
| 20260506223050 | 47 | 22 | 1.0 | 3.0 | 0.02 | 0.99 | 0.99 | 1006.8 | |
| 20260506222549 | 47 | 22 | 1.0 | 3.0 | 0.02 | 0.98 | 0.98 | 1006.8 | |
| 20260506222048 | 47 | 22 | 0.0 | 9.0 | 0.03 | 0.98 | 0.98 | 1006.8 | |
| 20260506221547 | 47 | 21 | 2.0 | 9.0 | 0.03 | 0.98 | 0.98 | 1006.4 | |
| 20260506220943 | 47 | 23 | 3.0 | 7.0 | 0.04 | 0.98 | 0.98 | 1006.1 | |
| 20260506220441 | 47 | 41 | 0.0 | 6.0 | 0.04 | 0.98 | 0.98 | 1006.1 | |
| 20260506215940 | 47 | 41 | 0.0 | 7.0 | 0.04 | 0.98 | 0.98 | 1006.1 | |
| 20260506215438 | 47 | 41 | 0.0 | 7.0 | 0.04 | 0.97 | 0.97 | 1006.1 | |
| 20260506214937 | 47 | 41 | 3.0 | 7.0 | 0.04 | 0.97 | 0.97 | 1006.1 | |
| 20260506214404 | 46 | 7 | 0.0 | 9.0 | 0.04 | 0.97 | 0.97 | 1006.1 | |
| 20260506213831 | 46 | 77 | 0.0 | 9.0 | 0.04 | 0.97 | 0.97 | 1005.8 | |
| 20260506213331 | 46 | 46 | 3.0 | 9.0 | 0.05 | 0.97 | 0.97 | 1005.8 | |
| 20260506212830 | 47 | 70 | 0.0 | 6.0 | 0.05 | 0.97 | 0.97 | 1005.8 | |
| 20260506212329 | 47 | 65 | 2.0 | 7.0 | 0.04 | 0.96 | 0.96 | 1005.8 | |
| 20260506211756 | 47 | 0 | 2.0 | 10.0 | 0.03 | 0.95 | 0.95 | 1005.8 | |
| 20260506211255 | 46 | 20 | 3.0 | 10.0 | 0.02 | 0.94 | 0.94 | 1005.8 | |
| 20260506210754 | 46 | 4 | 2.0 | 9.0 | 0.03 | 0.94 | 0.94 | 1005.8 | |
| 20260506210252 | 46 | 18 | 3.0 | 9.0 | 0.03 | 0.94 | 0.94 | 1005.8 | |
| 20260506205750 | 46 | 23 | 4.0 | 10.0 | 0.03 | 0.94 | 0.94 | 1005.4 | |
| 20260506205248 | 46 | 27 | 3.0 | 12.0 | 0.02 | 0.93 | 0.93 | 1005.4 | |
| 20260506204747 | 47 | 29 | 6.0 | 12.0 | 0.02 | 0.93 | 0.93 | 1005.4 | |
| 20260506204245 | 47 | 7 | 4.0 | 13.0 | 0.03 | 0.93 | 0.93 | 1005.4 | |
| 20260506203743 | 47 | 40 | 2.0 | 13.0 | 0.06 | 0.92 | 0.92 | 1005.4 | |
| 20260506203211 | 47 | 45 | 3.0 | 12.0 | 0.07 | 0.92 | 0.92 | 1005.1 | |
| 20260506202639 | 47 | 18 | 5.0 | 12.0 | 0.08 | 0.92 | 0.92 | 1005.1 | |
| 20260506202137 | 47 | 21 | 2.0 | 9.0 | 0.08 | 0.92 | 0.92 | 1005.1 | |
| 20260506201636 | 47 | 48 | 3.0 | 10.0 | 0.08 | 0.92 | 0.92 | 1005.1 | |
| 20260506201134 | 47 | 56 | 4.0 | 10.0 | 0.08 | 0.92 | 0.92 | 1005.1 | |
| 20260506200633 | 47 | 30 | 3.0 | 10.0 | 0.07 | 0.91 | 0.91 | 1005.1 | |
| 20260506200131 | 47 | 44 | 2.0 | 9.0 | 0.07 | 0.91 | 0.91 | 1005.1 | |
| 20260506195628 | 48 | 9 | 3.0 | 9.0 | 0.07 | 0.91 | 0.91 | 1004.7 | |
| 20260506195126 | 48 | 14 | 4.0 | 10.0 | 0.07 | 0.91 | 0.91 | 1005.1 | |
| 20260506194624 | 48 | 78 | 3.0 | 10.0 | 0.08 | 0.91 | 0.91 | 1004.7 | |
| 20260506194123 | 48 | 24 | 5.0 | 12.0 | 0.04 | 0.90 | 0.87 | 1005.1 | |
| 20260506193449 | 48 | 23 | 2.0 | 12.0 | 0.02 | 0.95 | 0.85 | 1005.1 | |
| 20260506192947 | 49 | 28 | 5.0 | 10.0 | 0.03 | 0.95 | 0.85 | 1005.1 | |
| 20260506192446 | 49 | 54 | 5.0 | 10.0 | 0.04 | 0.94 | 0.84 | 1005.1 | |
| 20260506191944 | 49 | 27 | 3.0 | 12.0 | 0.05 | 0.94 | 0.84 | 1005.1 | |
| 20260506191442 | 50 | 79 | 2.0 | 15.0 | 0.06 | 0.94 | 0.84 | 1004.7 | |
| 20260506190940 | 50 | 44 | 4.0 | 15.0 | 0.07 | 0.94 | 0.84 | 1004.7 | |
| 20260506190439 | 50 | 49 | 5.0 | 15.0 | 0.07 | 0.94 | 0.84 | 1004.7 | |
| 20260506185907 | 51 | 44 | 5.0 | 13.0 | 0.08 | 0.94 | 0.84 | 1004.7 | |
| 20260506185406 | 51 | 67 | 3.0 | 13.0 | 0.09 | 0.94 | 0.84 | 1004.7 | |
| 20260506184901 | 51 | 83 | 4.0 | 13.0 | 0.10 | 0.94 | 0.84 | 1004.7 | |
| 20260506184359 | 51 | 85 | 2.0 | 10.0 | 0.10 | 0.93 | 0.83 | 1004.7 | |
| 20260506183857 | 51 | 69 | 5.0 | 10.0 | 0.10 | 0.93 | 0.83 | 1004.7 | |
| 20260506183356 | 52 | 0 | 2.0 | 7.0 | 0.11 | 0.93 | 0.83 | 1004.7 | |
| 20260506182855 | 52 | 15 | 0.0 | 7.0 | 0.11 | 0.92 | 0.82 | 1004.7 | |
| 20260506182354 | 52 | 22 | 3.0 | 6.0 | 0.09 | 0.90 | 0.80 | 1004.7 | |
| 20260506181852 | 52 | 22 | 2.0 | 7.0 | 0.09 | 0.89 | 0.79 | 1004.7 | |
| 20260506181350 | 52 | 22 | 3.0 | 7.0 | 0.09 | 0.88 | 0.78 | 1004.7 | |
| 20260506180745 | 52 | 8 | 4.0 | 6.0 | 0.10 | 0.87 | 0.77 | 1004.7 | |
| 20260506180244 | 52 | 10 | 3.0 | 4.0 | 0.09 | 0.86 | 0.76 | 1004.7 | |
| 20260506175742 | 52 | 10 | 1.0 | 4.0 | 0.10 | 0.85 | 0.75 | 1004.7 | |
| 20260506175240 | 52 | 10 | 2.0 | 6.0 | 0.11 | 0.85 | 0.75 | 1004.7 | |
| 20260506174738 | 52 | 10 | 0.0 | 7.0 | 0.11 | 0.84 | 0.74 | 1005.1 | |
| 20260506174237 | 52 | 21 | 3.0 | 7.0 | 0.12 | 0.83 | 0.73 | 1005.1 | |
| 20260506173735 | 53 | 37 | 3.0 | 7.0 | 0.13 | 0.82 | 0.72 | 1004.7 | |
| 20260506173233 | 53 | 28 | 2.0 | 6.0 | 0.13 | 0.81 | 0.71 | 1005.1 | |
| 20260506172731 | 53 | 44 | 3.0 | 6.0 | 0.14 | 0.81 | 0.71 | 1005.1 | |
| 20260506172230 | 53 | 15 | 0.0 | 6.0 | 0.16 | 0.81 | 0.71 | 1005.1 | |
| 20260506171657 | 53 | 16 | 1.0 | 4.0 | 0.15 | 0.79 | 0.69 | 1005.1 | |
| 20260506171156 | 53 | 15 | 0.0 | 7.0 | 0.15 | 0.78 | 0.68 | 1005.1 | |
| 20260506170653 | 53 | 67 | 0.0 | 7.0 | 0.14 | 0.77 | 0.67 | 1005.1 | |
| 20260506170150 | 53 | 91 | 6.0 | 7.0 | 0.15 | 0.77 | 0.67 | 1005.1 | |
| 20260506165648 | 53 | 357 | 1.0 | 7.0 | 0.14 | 0.75 | 0.65 | 1005.4 | |
| 20260506165146 | 53 | 76 | 2.0 | 7.0 | 0.14 | 0.74 | 0.64 | 1005.4 | |
| 20260506164612 | 54 | 33 | 1.0 | 6.0 | 0.14 | 0.72 | 0.62 | 1005.4 | |
| 20260506164111 | 54 | 33 | 2.0 | 4.0 | 0.14 | 0.71 | 0.61 | 1005.8 | |
| 20260506163609 | 54 | 33 | 2.0 | 4.0 | 0.13 | 0.69 | 0.59 | 1005.4 | |
| 20260506163108 | 54 | 33 | 0.0 | 4.0 | 0.13 | 0.68 | 0.58 | 1005.4 | |
| 20260506162607 | 54 | 176 | 1.0 | 9.0 | 0.13 | 0.67 | 0.57 | 1005.4 | |
| 20260506162104 | 54 | 199 | 0.0 | 9.0 | 0.12 | 0.65 | 0.55 | 1005.8 | |
| 20260506161602 | 55 | 19 | 3.0 | 9.0 | 0.13 | 0.64 | 0.54 | 1005.8 | |
| 20260506161059 | 55 | 55 | 0.0 | 6.0 | 0.13 | 0.63 | 0.53 | 1005.8 | |
| 20260506160527 | 55 | 55 | 1.0 | 6.0 | 0.14 | 0.63 | 0.53 | 1005.8 | |
| 20260506160023 | 55 | 55 | 2.0 | 6.0 | 0.15 | 0.62 | 0.52 | 1005.8 | |
| 20260506155450 | 55 | 55 | 0.0 | 6.0 | 0.15 | 0.60 | 0.50 | 1005.8 | |
| 20260506154918 | 55 | 55 | 0.0 | 6.0 | 0.15 | 0.59 | 0.49 | 1006.1 | |
| 20260506154345 | 55 | 55 | 1.0 | 3.0 | 0.16 | 0.58 | 0.48 | 1006.1 | |
| 20260506153844 | 55 | 55 | 0.0 | 3.0 | 0.16 | 0.57 | 0.47 | 1006.1 | |
| 20260506153343 | 55 | 55 | 1.0 | 6.0 | 0.16 | 0.56 | 0.46 | 1006.1 | |
| 20260506152838 | 55 | 55 | 1.0 | 6.0 | 0.15 | 0.54 | 0.44 | 1006.1 | |
| 20260506152336 | 55 | 55 | 1.0 | 7.0 | 0.15 | 0.53 | 0.43 | 1006.1 |